Overview Statistics Trail Chart Weather Telemetry Raw packets
 

This is the latest recevied weather packets stored in our database for station/object G4KVI. If no packets are shown the sender has not sent any weather packets the latest 10 day(s).

<< 49 50 51 52 53 54 55 >>
Time Temp. Humidity Pressure Rain* Wind** Luminosity Snow
1788263105 19.44° C 66% 1023.1 hPa 0 mm - 291 W/m² -
1788262805 18.89° C 66% 1023 hPa 0 mm - 304 W/m² -
1788262505 18.89° C 65% 1023.2 hPa 0 mm - 239 W/m² -
1788262219 19.44° C 65% 1023.5 hPa 0 mm - 199 W/m² -
1788261905 19.44° C 64% 1022.9 hPa 0 mm - 220 W/m² -
1788261605 18.89° C 64% 1022.9 hPa 0 mm - 231 W/m² -
1788261305 19.44° C 63% 1022.8 hPa 0 mm - 276 W/m² -
1788261005 20° C 63% 1023 hPa 0 mm - 437 W/m² -
1788260705 20° C 63% 1022.8 hPa 0 mm - 427 W/m² -
1788260405 20° C 63% 1023.2 hPa 0 mm - 361 W/m² -
1788260105 20° C 63% 1023.1 hPa 0 mm - 300 W/m² -
1788259805 20° C 61% 1023.1 hPa 0 mm - 289 W/m² -
1788259505 20.56° C 60% 1023.2 hPa 0 mm - 335 W/m² -
1788259205 20.56° C 64% 1023.2 hPa 0 mm - 484 W/m² -
1788258905 20° C 63% 1023.1 hPa 0 mm - 518 W/m² -
1788258605 20° C 60% 1023 hPa 0 mm - 616 W/m² -
1788258305 20° C 64% 1023.2 hPa 0 mm - 624 W/m² -
1788258005 20° C 64% 1023.4 hPa 0 mm - 603 W/m² -
1788257705 20.56° C 65% 1023.2 hPa 0 mm - 188 W/m² -
1788257405 20.56° C 63% 1023.5 hPa 0 mm - 603 W/m² -
1788257105 20.56° C 64% 1023.5 hPa 0 mm - 608 W/m² -
1788256805 20° C 68% 1023.5 hPa 0 mm - 620 W/m² -
1788256505 20.56° C 66% 1023.2 hPa 0 mm - 567 W/m² -
1788256205 20.56° C 67% 1023.4 hPa 0 mm - 176 W/m² -
1788255905 20° C 68% 1023.4 hPa 0 mm - 536 W/m² -

* Rain latest hour (hover to see other rain measurements)
** Current wind speed in m/s (hover to see current wind gust speed)